Year,Month,Day,Hour,Minute,Value (Times are PST for temperature in C)
2018,12,09,00,00,7.70
2018,12,09,00,01,7.70
2018,12,09,00,02,7.70
2018,12,09,00,03,7.70
2018,12,09,00,04,7.70
2018,12,09,00,05,7.70
2018,12,09,00,06,7.70
2018,12,09,00,07,7.70
2018,12,09,00,08,7.70
2018,12,09,00,09,7.70
2018,12,09,00,10,7.70
2018,12,09,00,11,7.70
2018,12,09,00,12,7.70
2018,12,09,00,13,7.70
2018,12,09,00,14,7.70
2018,12,09,00,15,7.70
2018,12,09,00,16,7.70
2018,12,09,00,17,7.70
2018,12,09,00,18,7.70
2018,12,09,00,19,7.70
2018,12,09,00,20,7.70
2018,12,09,00,21,7.70
2018,12,09,00,22,7.70
2018,12,09,00,23,7.80
2018,12,09,00,24,7.80
2018,12,09,00,25,7.80
2018,12,09,00,26,7.80
2018,12,09,00,27,7.80
2018,12,09,00,28,7.80
2018,12,09,00,29,7.80
2018,12,09,00,30,7.80
2018,12,09,00,31,7.80
2018,12,09,00,32,7.80
2018,12,09,00,33,7.80
2018,12,09,00,34,7.80
2018,12,09,00,35,7.90
2018,12,09,00,36,7.90
2018,12,09,00,37,7.90
2018,12,09,00,38,7.90
2018,12,09,00,39,7.90
2018,12,09,00,40,7.90
2018,12,09,00,41,7.90
2018,12,09,00,42,7.90
2018,12,09,00,43,7.90
2018,12,09,00,44,7.90
2018,12,09,00,45,8.00
2018,12,09,00,46,8.00
2018,12,09,00,47,8.00
2018,12,09,00,48,8.00
2018,12,09,00,49,8.00
2018,12,09,00,50,8.00
2018,12,09,00,51,8.10
2018,12,09,00,52,8.10
2018,12,09,00,53,8.10
2018,12,09,00,54,8.10
2018,12,09,00,55,8.00
2018,12,09,00,56,8.00
2018,12,09,00,57,8.10
2018,12,09,00,58,8.00
2018,12,09,00,59,8.10
2018,12,09,01,00,8.00
2018,12,09,01,01,8.00
2018,12,09,01,02,8.00
2018,12,09,01,03,8.00
2018,12,09,01,04,8.00
2018,12,09,01,05,8.00
2018,12,09,01,06,8.00
2018,12,09,01,07,8.00
2018,12,09,01,08,8.00
2018,12,09,01,09,8.00
2018,12,09,01,10,8.10
2018,12,09,01,11,8.10
2018,12,09,01,12,8.10
2018,12,09,01,13,8.10
2018,12,09,01,14,8.00
2018,12,09,01,15,8.00
2018,12,09,01,16,8.00
2018,12,09,01,17,8.00
2018,12,09,01,18,8.00
2018,12,09,01,19,8.00
2018,12,09,01,20,8.00
2018,12,09,01,21,7.90
2018,12,09,01,22,7.90
2018,12,09,01,23,7.90
2018,12,09,01,24,7.90
2018,12,09,01,25,7.90
2018,12,09,01,26,7.90
2018,12,09,01,27,7.90
2018,12,09,01,28,7.90
2018,12,09,01,29,7.90
2018,12,09,01,30,7.80
2018,12,09,01,31,7.80
2018,12,09,01,32,7.80
2018,12,09,01,33,7.80
2018,12,09,01,34,7.80
2018,12,09,01,35,7.80
2018,12,09,01,36,7.80
2018,12,09,01,37,7.80
2018,12,09,01,38,7.80
2018,12,09,01,39,7.80
2018,12,09,01,40,7.80
2018,12,09,01,41,7.80
2018,12,09,01,42,7.90
2018,12,09,01,43,7.80
2018,12,09,01,44,7.80
2018,12,09,01,45,7.80
2018,12,09,01,46,7.80
2018,12,09,01,47,7.80
2018,12,09,01,48,7.80
2018,12,09,01,49,7.80
2018,12,09,01,50,7.80
2018,12,09,01,51,7.80
2018,12,09,01,52,7.80
2018,12,09,01,53,7.80
2018,12,09,09,14,8.50
2018,12,09,09,15,8.50
2018,12,09,09,16,8.50
2018,12,09,09,17,8.50
2018,12,09,09,18,8.60
2018,12,09,09,19,8.60
2018,12,09,09,20,8.60
2018,12,09,09,21,8.60
2018,12,09,09,22,8.60
2018,12,09,09,23,8.60
2018,12,09,09,24,8.70
2018,12,09,09,25,8.70
2018,12,09,09,26,8.70
2018,12,09,09,27,8.70
2018,12,09,09,28,8.70
2018,12,09,09,29,8.70
2018,12,09,09,30,8.80
2018,12,09,09,31,8.80
2018,12,09,09,32,8.80
2018,12,09,09,33,8.80
2018,12,09,09,34,8.80
2018,12,09,09,35,8.90
2018,12,09,09,36,8.90
2018,12,09,09,37,8.90
2018,12,09,09,38,8.90
2018,12,09,09,39,9.00
2018,12,09,09,40,9.00
2018,12,09,09,41,9.00
2018,12,09,09,42,9.10
2018,12,09,09,43,9.10
2018,12,09,09,44,9.10
2018,12,09,09,45,9.10
2018,12,09,09,46,9.10
2018,12,09,09,47,9.10
2018,12,09,09,48,9.10
2018,12,09,09,49,9.10
2018,12,09,09,50,9.10
2018,12,09,09,51,9.20
2018,12,09,09,52,9.20
2018,12,09,09,53,9.20
2018,12,09,09,54,9.20
2018,12,09,09,55,9.20
2018,12,09,09,56,9.20
2018,12,09,09,57,9.20
2018,12,09,09,58,9.20
2018,12,09,09,59,9.20
2018,12,09,10,00,9.20
2018,12,09,10,01,9.20
2018,12,09,10,02,9.20
2018,12,09,10,03,9.20
2018,12,09,10,04,9.20
2018,12,09,10,05,9.20
2018,12,09,10,06,9.20
2018,12,09,10,07,9.20
2018,12,09,10,08,9.20
2018,12,09,10,09,9.20
2018,12,09,10,10,9.20
2018,12,09,10,11,9.20
2018,12,09,10,12,9.20
2018,12,09,10,13,9.20
2018,12,09,10,14,9.20
2018,12,09,10,15,9.20
2018,12,09,10,16,9.20
2018,12,09,10,17,9.20
2018,12,09,10,18,9.20
2018,12,09,10,19,9.20
2018,12,09,10,20,9.20
2018,12,09,10,21,9.30
2018,12,09,10,22,9.30
2018,12,09,10,23,9.30
2018,12,09,10,24,9.30
2018,12,09,10,25,9.30
2018,12,09,10,26,9.30
2018,12,09,10,27,9.30
2018,12,09,10,28,9.30
2018,12,09,10,29,9.30
2018,12,09,10,30,9.30
2018,12,09,10,31,9.30
2018,12,09,10,32,9.30
2018,12,09,10,33,9.40
2018,12,09,10,34,9.40
2018,12,09,10,35,9.40
2018,12,09,10,36,9.40
2018,12,09,10,37,9.30
2018,12,09,10,38,9.30
2018,12,09,10,39,9.30
2018,12,09,10,40,9.30
2018,12,09,10,41,9.30
2018,12,09,10,42,9.30
2018,12,09,10,43,9.30
2018,12,09,10,44,9.30
2018,12,09,10,45,9.30
2018,12,09,10,46,9.30
2018,12,09,10,47,9.30
2018,12,09,10,48,9.30
2018,12,09,10,49,9.30
2018,12,09,10,50,9.30
2018,12,09,10,51,9.30
2018,12,09,10,52,9.30
2018,12,09,10,53,9.30
2018,12,09,10,54,9.20
2018,12,09,10,55,9.20
2018,12,09,10,56,9.20
2018,12,09,10,57,9.20
2018,12,09,10,58,9.20
2018,12,09,10,59,9.20
2018,12,09,11,00,9.20
2018,12,09,11,01,9.20
2018,12,09,11,02,9.20
2018,12,09,11,03,9.20
2018,12,09,11,04,9.20
2018,12,09,11,05,9.20
2018,12,09,11,06,9.20
2018,12,09,11,07,9.20
2018,12,09,11,08,9.20
2018,12,09,11,09,9.20
2018,12,09,11,10,9.20
2018,12,09,11,11,9.20
2018,12,09,11,12,9.20
2018,12,09,11,13,9.20
2018,12,09,11,14,9.10
2018,12,09,11,15,9.10
2018,12,09,11,16,9.10
2018,12,09,11,17,9.10
2018,12,09,11,18,9.10
2018,12,09,11,19,9.10
2018,12,09,11,20,9.10
2018,12,09,11,21,9.10
2018,12,09,11,22,9.10
2018,12,09,11,23,9.10
2018,12,09,11,24,9.10
2018,12,09,11,25,9.10
2018,12,09,11,26,9.10
2018,12,09,11,27,9.10
2018,12,09,11,28,9.10
2018,12,09,11,29,9.10
2018,12,09,11,30,9.10
2018,12,09,11,31,9.10
2018,12,09,11,32,9.10
2018,12,09,11,33,9.10
2018,12,09,11,34,9.00
2018,12,09,11,35,9.00
2018,12,09,11,36,9.00
2018,12,09,11,37,9.00
2018,12,09,11,38,8.90
2018,12,09,11,39,8.90
2018,12,09,11,40,8.90
2018,12,09,11,41,8.80
2018,12,09,11,42,8.80
2018,12,09,11,43,8.80
2018,12,09,11,44,8.80
2018,12,09,11,45,8.80
2018,12,09,11,46,8.80
2018,12,09,11,47,8.80
2018,12,09,11,48,8.70
2018,12,09,11,49,8.70
2018,12,09,11,50,8.70
2018,12,09,11,51,8.70
2018,12,09,11,52,8.70
2018,12,09,11,53,8.70
2018,12,09,11,54,8.70
2018,12,09,11,55,8.70
2018,12,09,11,56,8.70
2018,12,09,11,57,8.70
2018,12,09,11,58,8.70
2018,12,09,11,59,8.70
2018,12,09,12,00,8.60
2018,12,09,12,01,8.60
2018,12,09,12,02,8.60
2018,12,09,12,03,8.60
2018,12,09,12,04,8.60
2018,12,09,12,05,8.60
2018,12,09,12,06,8.60
2018,12,09,12,07,8.60
2018,12,09,12,08,8.60
2018,12,09,12,09,8.50
2018,12,09,12,10,8.50
2018,12,09,12,11,8.50
2018,12,09,12,12,8.50
2018,12,09,12,13,8.50
2018,12,09,12,14,8.40
2018,12,09,12,15,8.40
2018,12,09,12,16,8.40
2018,12,09,12,17,8.40
2018,12,09,12,18,8.40
2018,12,09,12,19,8.40
2018,12,09,12,20,8.30
2018,12,09,12,21,8.30
2018,12,09,12,22,8.30
2018,12,09,12,23,8.30
2018,12,09,12,24,8.30
2018,12,09,12,25,8.30
2018,12,09,12,26,8.30
2018,12,09,12,27,8.30
2018,12,09,12,28,8.30
2018,12,09,12,29,8.30
2018,12,09,12,30,8.30
2018,12,09,12,31,8.30
2018,12,09,12,32,8.30
2018,12,09,12,33,8.30
2018,12,09,12,34,8.30
2018,12,09,12,35,8.30
2018,12,09,12,36,8.30
2018,12,09,12,37,8.30
2018,12,09,12,38,8.30
2018,12,09,12,39,8.20
2018,12,09,12,40,8.20
2018,12,09,12,41,8.20
2018,12,09,12,42,8.20
2018,12,09,12,43,8.20
2018,12,09,12,44,8.20
2018,12,09,12,45,8.20
2018,12,09,12,46,8.20
2018,12,09,12,47,8.20
2018,12,09,12,48,8.20
2018,12,09,12,49,8.20
2018,12,09,12,50,8.20
2018,12,09,12,51,8.20
2018,12,09,12,52,8.20
2018,12,09,12,53,8.20
2018,12,09,12,54,8.20
2018,12,09,12,55,8.20
2018,12,09,12,56,8.20
2018,12,09,12,57,8.20
2018,12,09,12,58,8.20
2018,12,09,12,59,8.20
2018,12,09,13,00,8.20
2018,12,09,13,01,8.20
2018,12,09,13,02,8.20
2018,12,09,13,03,8.20
2018,12,09,13,04,8.20
2018,12,09,13,05,8.20
2018,12,09,13,06,8.20
2018,12,09,13,07,8.20
2018,12,09,13,08,8.20
2018,12,09,13,09,8.10
2018,12,09,13,10,8.10
2018,12,09,13,11,8.10
2018,12,09,13,12,8.10
2018,12,09,13,13,8.10
2018,12,09,13,14,8.20
2018,12,09,13,15,8.20
2018,12,09,13,16,8.20
2018,12,09,13,17,8.20
2018,12,09,13,18,8.20
2018,12,09,13,19,8.20
2018,12,09,13,20,8.20
2018,12,09,13,21,8.20
2018,12,09,13,22,8.20
2018,12,09,13,23,8.20
2018,12,09,13,24,8.20
2018,12,09,13,25,8.30
2018,12,09,13,26,8.30
2018,12,09,13,27,8.30
2018,12,09,13,28,8.30
2018,12,09,13,29,8.30
2018,12,09,13,30,8.30
2018,12,09,13,31,8.30
2018,12,09,13,32,8.30
2018,12,09,13,33,8.30
2018,12,09,13,34,8.30
2018,12,09,13,35,8.40
2018,12,09,13,36,8.40
2018,12,09,13,37,8.30
2018,12,09,13,38,8.40
2018,12,09,13,39,8.30
2018,12,09,13,40,8.30
2018,12,09,13,41,8.30
2018,12,09,13,42,8.30
2018,12,09,13,43,8.30
2018,12,09,13,44,8.30
2018,12,09,13,45,8.30
2018,12,09,13,46,8.30
2018,12,09,13,47,8.30
2018,12,09,13,48,8.30
2018,12,09,13,49,8.20
2018,12,09,13,50,8.20
2018,12,09,13,51,8.20
2018,12,09,13,52,8.20
2018,12,09,13,53,8.20
2018,12,09,13,54,8.20
2018,12,09,13,55,8.20
2018,12,09,13,56,8.20
2018,12,09,13,57,8.20
2018,12,09,13,58,8.20
2018,12,09,13,59,8.10
2018,12,09,14,00,8.10
2018,12,09,14,01,8.10
2018,12,09,14,02,8.10
2018,12,09,14,03,8.10
2018,12,09,14,04,8.10
2018,12,09,14,05,8.10
2018,12,09,14,06,8.10
2018,12,09,14,07,8.10
2018,12,09,14,08,8.10
2018,12,09,14,09,8.00
2018,12,09,14,10,8.00
2018,12,09,14,11,8.00
2018,12,09,14,12,8.00
2018,12,09,14,13,8.00
2018,12,09,14,14,8.00
2018,12,09,14,15,8.00
2018,12,09,14,16,8.00
2018,12,09,14,17,8.00
2018,12,09,14,18,8.00
2018,12,09,14,19,8.00
2018,12,09,14,20,8.00
2018,12,09,14,21,8.00
2018,12,09,14,22,8.00
2018,12,09,14,23,8.00
2018,12,09,14,24,8.00
2018,12,09,14,25,7.90
2018,12,09,14,26,7.90
2018,12,09,14,27,7.90
2018,12,09,14,28,7.90
2018,12,09,14,29,7.90
2018,12,09,14,30,7.90
2018,12,09,14,31,7.90
2018,12,09,14,32,7.90
2018,12,09,14,33,7.90
2018,12,09,14,34,7.90
2018,12,09,14,35,7.80
2018,12,09,14,36,7.80
2018,12,09,14,37,7.90
2018,12,09,14,38,7.90
2018,12,09,14,39,7.90
2018,12,09,14,40,7.90
2018,12,09,14,41,7.90
2018,12,09,14,42,7.90
2018,12,09,14,43,7.90
2018,12,09,14,44,7.90
2018,12,09,14,45,7.90
2018,12,09,14,46,7.90
2018,12,09,14,47,7.90
2018,12,09,14,48,7.90
2018,12,09,14,49,7.80
2018,12,09,14,50,7.80
2018,12,09,14,51,7.80
2018,12,09,14,52,7.80
2018,12,09,14,53,7.80
2018,12,09,14,54,7.80
2018,12,09,14,55,7.80
2018,12,09,14,56,7.80
2018,12,09,14,57,7.80
2018,12,09,14,58,7.80
2018,12,09,14,59,7.80
2018,12,09,15,00,7.80
2018,12,09,15,01,7.80
2018,12,09,15,02,7.80
2018,12,09,15,03,7.80
2018,12,09,15,04,7.80
2018,12,09,15,05,7.80
2018,12,09,15,06,7.70
2018,12,09,15,07,7.70
2018,12,09,15,08,7.70
2018,12,09,15,09,7.70
2018,12,09,15,10,7.70
2018,12,09,15,11,7.70
2018,12,09,15,12,7.70
2018,12,09,15,13,7.70
2018,12,09,15,14,7.70
2018,12,09,15,15,7.70
2018,12,09,15,16,7.70
2018,12,09,15,17,7.70
2018,12,09,15,18,7.70
2018,12,09,15,19,7.70
2018,12,09,15,20,7.70
2018,12,09,15,21,7.70
2018,12,09,15,22,7.70
2018,12,09,15,23,7.70
2018,12,09,15,24,7.70
2018,12,09,15,25,7.70
2018,12,09,15,26,7.70
2018,12,09,15,27,7.70
2018,12,09,15,28,7.70
2018,12,09,15,29,7.70
2018,12,09,15,30,7.70
2018,12,09,15,31,7.70
2018,12,09,15,32,7.70
2018,12,09,15,33,7.70
2018,12,09,15,34,7.70
2018,12,09,15,35,7.70
2018,12,09,15,36,7.70
2018,12,09,15,37,7.70
2018,12,09,15,38,7.70
2018,12,09,15,39,7.70
2018,12,09,15,40,7.70
2018,12,09,15,41,7.70
2018,12,09,15,42,7.70
2018,12,09,15,43,7.70
2018,12,09,15,44,7.70
2018,12,09,15,45,7.70
2018,12,09,15,46,7.70
2018,12,09,15,47,7.70
2018,12,09,15,48,7.70
2018,12,09,15,49,7.70
2018,12,09,15,50,7.70
2018,12,09,15,51,7.70
2018,12,09,15,52,7.70
2018,12,09,15,53,7.70
2018,12,09,15,54,7.70
2018,12,09,15,55,7.70
2018,12,09,15,56,7.70
2018,12,09,15,57,7.70
2018,12,09,15,58,7.70
2018,12,09,15,59,7.70
2018,12,09,16,00,7.70
2018,12,09,16,01,7.70
2018,12,09,16,02,7.70
2018,12,09,16,03,7.70
2018,12,09,16,04,7.70
2018,12,09,16,05,7.70
2018,12,09,16,06,7.70
2018,12,09,16,07,7.70
2018,12,09,16,08,7.70
2018,12,09,16,09,7.70
2018,12,09,16,10,7.70
2018,12,09,16,11,7.70
2018,12,09,16,12,7.70
2018,12,09,16,13,7.70
2018,12,09,16,14,7.70
2018,12,09,16,15,7.70
2018,12,09,16,16,7.70
2018,12,09,16,17,7.70
2018,12,09,16,18,7.70
2018,12,09,16,19,7.70
2018,12,09,16,20,7.70
2018,12,09,16,21,7.70
2018,12,09,16,22,7.70
2018,12,09,16,23,7.70
2018,12,09,16,24,7.70
2018,12,09,16,25,7.70
2018,12,09,16,26,7.70
2018,12,09,16,27,7.70
2018,12,09,16,28,7.80
2018,12,09,16,29,7.80
2018,12,09,16,30,7.80
2018,12,09,16,31,7.80
2018,12,09,16,32,7.80
2018,12,09,16,33,7.80
2018,12,09,16,34,7.80
2018,12,09,16,35,7.80
2018,12,09,16,36,7.80
2018,12,09,16,37,7.80
2018,12,09,16,38,7.80
2018,12,09,16,39,7.80
2018,12,09,16,40,7.80
2018,12,09,16,41,7.80
2018,12,09,16,42,7.80
2018,12,09,16,43,7.80
2018,12,09,16,44,7.80
2018,12,09,16,45,7.80
2018,12,09,16,46,7.80
2018,12,09,16,47,7.80
2018,12,09,16,48,7.80
2018,12,09,16,49,7.80
2018,12,09,16,50,7.80
2018,12,09,16,51,7.80
2018,12,09,16,52,7.80
2018,12,09,16,53,7.80
2018,12,09,16,54,7.80
2018,12,09,16,55,7.80
2018,12,09,16,56,7.80
2018,12,09,16,57,7.80
2018,12,09,16,58,7.80
2018,12,09,16,59,7.80
2018,12,09,17,00,7.80
2018,12,09,17,01,7.80
2018,12,09,17,02,7.80
2018,12,09,17,03,7.80
2018,12,09,17,04,7.80
2018,12,09,17,05,7.80
2018,12,09,17,06,7.80
2018,12,09,17,07,7.80
2018,12,09,17,08,7.80
2018,12,09,17,09,7.80
2018,12,09,17,10,7.80
2018,12,09,17,11,7.80
2018,12,09,17,12,7.80
2018,12,09,17,13,7.80
2018,12,09,17,14,7.80
2018,12,09,17,15,7.80
2018,12,09,17,16,7.90
2018,12,09,17,17,7.80
2018,12,09,17,18,7.90
2018,12,09,17,19,7.90
2018,12,09,17,20,7.90
2018,12,09,17,21,7.90
2018,12,09,17,22,7.90
2018,12,09,17,23,7.90
2018,12,09,17,24,7.90
2018,12,09,17,25,7.90
2018,12,09,17,26,7.90
2018,12,09,17,27,7.90
2018,12,09,17,28,7.90
2018,12,09,17,29,7.90
2018,12,09,17,30,7.90
2018,12,09,17,31,7.90
2018,12,09,17,32,7.90
2018,12,09,17,33,7.90
2018,12,09,17,34,7.90
2018,12,09,17,35,7.90
2018,12,09,17,36,7.90
2018,12,09,17,37,7.90
2018,12,09,17,38,7.90
2018,12,09,17,39,7.90
2018,12,09,17,40,7.90
2018,12,09,17,41,7.90
2018,12,09,17,42,7.90
2018,12,09,17,43,7.90
2018,12,09,17,44,7.90
2018,12,09,17,45,7.90
2018,12,09,17,46,7.90
2018,12,09,17,47,7.90
2018,12,09,17,48,7.90
2018,12,09,17,49,7.90
2018,12,09,17,50,7.90
2018,12,09,17,51,7.90
2018,12,09,17,52,7.90
2018,12,09,17,53,7.90
2018,12,09,17,54,7.90
2018,12,09,17,55,7.90
2018,12,09,17,56,7.90
2018,12,09,17,57,7.90
2018,12,09,17,58,7.90
2018,12,09,17,59,7.90
2018,12,09,18,00,7.90
2018,12,09,18,01,7.90
2018,12,09,18,02,7.90
2018,12,09,18,03,7.90
2018,12,09,18,04,7.90
2018,12,09,18,05,7.90
2018,12,09,18,06,7.90
2018,12,09,18,07,7.90
2018,12,09,18,08,7.90
2018,12,09,18,09,7.90
2018,12,09,18,10,7.90
2018,12,09,18,11,7.90
2018,12,09,18,12,7.90
2018,12,09,18,13,7.90
2018,12,09,18,14,7.90
2018,12,09,18,15,7.90
2018,12,09,18,16,7.90
2018,12,09,18,17,7.90
2018,12,09,18,18,7.90
2018,12,09,18,19,7.90
2018,12,09,18,20,7.90
2018,12,09,18,21,7.90
2018,12,09,18,22,7.90
2018,12,09,18,23,7.90
2018,12,09,18,24,7.90
2018,12,09,18,25,8.00
2018,12,09,18,26,8.00
2018,12,09,18,27,8.00
2018,12,09,18,28,8.00
2018,12,09,18,29,8.00
2018,12,09,18,30,8.00
2018,12,09,18,31,8.00
2018,12,09,18,32,8.10
2018,12,09,18,33,8.10
2018,12,09,18,34,8.10
2018,12,09,18,35,8.10
2018,12,09,18,36,8.10
2018,12,09,18,37,8.10
2018,12,09,18,38,8.10
2018,12,09,18,39,8.10
2018,12,09,18,40,8.10
2018,12,09,18,41,8.10
2018,12,09,18,42,8.10
2018,12,09,18,43,8.10
2018,12,09,18,44,8.10
2018,12,09,18,45,8.10
2018,12,09,18,46,8.10
2018,12,09,18,47,8.10
2018,12,09,18,48,8.10
2018,12,09,18,49,8.10
2018,12,09,18,50,8.10
2018,12,09,18,51,8.10
2018,12,09,18,52,8.10
2018,12,09,18,53,8.10
2018,12,09,18,54,8.10
2018,12,09,18,55,8.10
2018,12,09,18,56,8.10
2018,12,09,18,57,8.10
2018,12,09,18,58,8.10
2018,12,09,18,59,8.10
2018,12,09,19,00,8.10
2018,12,09,19,01,8.10
2018,12,09,19,02,8.10
2018,12,09,19,03,8.10
2018,12,09,19,04,8.10
2018,12,09,19,05,8.10
2018,12,09,19,06,8.10
2018,12,09,19,07,8.10
2018,12,09,19,08,8.10
2018,12,09,19,09,8.10
2018,12,09,19,10,8.10
2018,12,09,19,11,8.10
2018,12,09,19,12,8.10
2018,12,09,19,13,8.10
2018,12,09,19,14,8.10
2018,12,09,19,15,8.10
2018,12,09,19,16,8.10
2018,12,09,19,17,8.10
2018,12,09,19,18,8.10
2018,12,09,19,19,8.10
2018,12,09,19,20,8.10
2018,12,09,19,21,8.10
2018,12,09,19,22,8.10
2018,12,09,19,23,8.10
2018,12,09,19,24,8.10
2018,12,09,19,25,8.10
2018,12,09,19,26,8.10
2018,12,09,19,27,8.10
2018,12,09,19,28,8.10
2018,12,09,19,29,8.10
2018,12,09,19,30,8.10
2018,12,09,19,31,8.10
2018,12,09,19,32,8.10
2018,12,09,19,33,8.10
2018,12,09,19,34,8.10
2018,12,09,19,35,8.10
2018,12,09,19,36,8.10
2018,12,09,19,37,8.10
2018,12,09,19,38,8.10
2018,12,09,19,39,8.10
2018,12,09,19,40,8.10
2018,12,09,19,41,8.00
2018,12,09,19,42,8.00
2018,12,09,19,43,8.00
2018,12,09,19,44,8.00
2018,12,09,19,45,8.00
2018,12,09,19,46,8.00
2018,12,09,19,47,7.90
2018,12,09,19,48,7.90
2018,12,09,19,49,7.90
2018,12,09,19,50,7.90
2018,12,09,19,51,7.90
2018,12,09,19,52,7.90
2018,12,09,19,53,7.90
2018,12,09,19,54,7.90
2018,12,09,19,55,8.00
2018,12,09,19,56,8.00
2018,12,09,19,57,8.00
2018,12,09,19,58,8.00
2018,12,09,19,59,8.00
2018,12,09,20,00,8.00
2018,12,09,20,01,8.00
2018,12,09,20,02,8.00
2018,12,09,20,03,8.00
2018,12,09,20,04,8.10
2018,12,09,20,05,8.10
2018,12,09,20,06,8.10
2018,12,09,20,07,8.10
2018,12,09,20,08,8.10
2018,12,09,20,09,8.10
2018,12,09,20,10,8.10
2018,12,09,20,11,8.10
2018,12,09,20,12,8.20
2018,12,09,20,13,8.20
2018,12,09,20,14,8.20
2018,12,09,20,15,8.20
2018,12,09,20,16,8.20
2018,12,09,20,17,8.20
2018,12,09,20,18,8.20
2018,12,09,20,19,8.20
2018,12,09,20,20,8.20
2018,12,09,20,21,8.20
2018,12,09,20,22,8.20
2018,12,09,20,23,8.30
2018,12,09,20,24,8.30
2018,12,09,20,25,8.30
2018,12,09,20,26,8.30
2018,12,09,20,27,8.30
2018,12,09,20,28,8.30
2018,12,09,20,29,8.30
2018,12,09,20,30,8.30
2018,12,09,20,31,8.30
2018,12,09,20,32,8.30
2018,12,09,20,33,8.30
2018,12,09,20,34,8.30
2018,12,09,20,35,8.30
2018,12,09,20,36,8.30
2018,12,09,20,37,8.30
2018,12,09,20,38,8.30
2018,12,09,20,39,8.30
2018,12,09,20,40,8.30
2018,12,09,20,41,8.30
2018,12,09,20,42,8.30
2018,12,09,20,43,8.30
2018,12,09,20,44,8.20
2018,12,09,20,45,8.20
2018,12,09,20,46,8.20
2018,12,09,20,47,8.20
2018,12,09,20,48,8.20
2018,12,09,20,49,8.20
2018,12,09,20,50,8.20
2018,12,09,20,51,8.20
2018,12,09,20,52,8.20
2018,12,09,20,53,8.20
2018,12,09,20,54,8.20
2018,12,09,20,55,8.10
2018,12,09,20,56,8.10
2018,12,09,20,57,8.10
2018,12,09,20,58,8.10
2018,12,09,20,59,8.10
2018,12,09,21,00,8.10
2018,12,09,21,01,8.10
2018,12,09,21,02,8.10
2018,12,09,21,03,8.10
2018,12,09,21,04,8.10
2018,12,09,21,05,8.10
2018,12,09,21,06,8.10
2018,12,09,21,07,8.10
2018,12,09,21,08,8.10
2018,12,09,21,09,8.10
2018,12,09,21,10,8.10
2018,12,09,21,11,8.10
2018,12,09,21,12,8.10
2018,12,09,21,13,8.00
2018,12,09,21,14,8.00
2018,12,09,21,15,8.00
2018,12,09,21,16,8.00
2018,12,09,21,17,8.00
2018,12,09,21,18,8.00
2018,12,09,21,19,8.00
2018,12,09,21,20,8.00
2018,12,09,21,21,8.00
2018,12,09,21,22,7.90
2018,12,09,21,23,7.90
2018,12,09,21,24,7.90
2018,12,09,21,25,7.90
2018,12,09,21,26,7.90
2018,12,09,21,27,7.90
2018,12,09,21,28,7.90
2018,12,09,21,29,7.90
2018,12,09,21,30,7.90
2018,12,09,21,31,7.90
2018,12,09,21,32,7.90
2018,12,09,21,33,7.90
2018,12,09,21,34,7.90
2018,12,09,21,35,7.90
2018,12,09,21,36,7.90
2018,12,09,21,37,7.90
2018,12,09,21,38,7.90
2018,12,09,21,39,7.90
2018,12,09,21,40,7.90
2018,12,09,21,41,7.90
2018,12,09,21,42,7.90
2018,12,09,21,43,7.90
2018,12,09,21,44,7.90
2018,12,09,21,45,7.90
2018,12,09,21,46,7.90
2018,12,09,21,47,7.90
2018,12,09,21,48,7.90
2018,12,09,21,49,7.90
2018,12,09,21,50,7.90
2018,12,09,21,51,7.90
2018,12,09,21,52,7.90
2018,12,09,21,53,7.80
2018,12,09,21,54,7.80
2018,12,09,21,55,7.80
2018,12,09,21,56,7.80
2018,12,09,21,57,7.80
2018,12,09,21,58,7.80
2018,12,09,21,59,7.80
2018,12,09,22,00,7.70
2018,12,09,22,01,7.70
2018,12,09,22,02,7.70
2018,12,09,22,03,7.70
2018,12,09,22,04,7.70
2018,12,09,22,05,7.70
2018,12,09,22,06,7.70
2018,12,09,22,07,7.70
2018,12,09,22,08,7.70
2018,12,09,22,09,7.70
2018,12,09,22,10,7.70
2018,12,09,22,11,7.70
2018,12,09,22,12,7.60
2018,12,09,22,13,7.60
2018,12,09,22,14,7.60
2018,12,09,22,15,7.60
2018,12,09,22,16,7.60
2018,12,09,22,17,7.60
2018,12,09,22,18,7.60
2018,12,09,22,19,7.60
2018,12,09,22,20,7.60
2018,12,09,22,21,7.60
2018,12,09,22,22,7.60
2018,12,09,22,23,7.60
2018,12,09,22,24,7.60
2018,12,09,22,25,7.60
2018,12,09,22,26,7.60
2018,12,09,22,27,7.60
2018,12,09,22,28,7.60
2018,12,09,22,29,7.60
2018,12,09,22,30,7.60
2018,12,09,22,31,7.60
2018,12,09,22,32,7.60
2018,12,09,22,33,7.60
2018,12,09,22,34,7.60
2018,12,09,22,35,7.60
2018,12,09,22,36,7.60
2018,12,09,22,37,7.60
2018,12,09,22,38,7.60
2018,12,09,22,39,7.60
2018,12,09,22,40,7.60
2018,12,09,22,41,7.60
2018,12,09,22,42,7.60
2018,12,09,22,43,7.60
2018,12,09,22,44,7.60
2018,12,09,22,45,7.60
2018,12,09,22,46,7.60
2018,12,09,22,47,7.60
2018,12,09,22,48,7.60
2018,12,09,22,49,7.60
2018,12,09,22,50,7.60
2018,12,09,22,51,7.60
2018,12,09,22,52,7.60
2018,12,09,22,53,7.60
2018,12,09,22,54,7.60
2018,12,09,22,55,7.60
2018,12,09,22,56,7.60
2018,12,09,22,57,7.60
2018,12,09,22,58,7.60
2018,12,09,22,59,7.60
2018,12,09,23,00,7.60
2018,12,09,23,01,7.60
2018,12,09,23,02,7.60
2018,12,09,23,03,7.60
2018,12,09,23,04,7.60
2018,12,09,23,05,7.60
2018,12,09,23,06,7.60
2018,12,09,23,07,7.60
2018,12,09,23,08,7.60
2018,12,09,23,09,7.60
2018,12,09,23,10,7.60
2018,12,09,23,11,7.60
2018,12,09,23,12,7.60
2018,12,09,23,13,7.60
2018,12,09,23,14,7.60
2018,12,09,23,15,7.60
2018,12,09,23,16,7.60
2018,12,09,23,17,7.60
2018,12,09,23,18,7.50
2018,12,09,23,19,7.60
2018,12,09,23,20,7.50
2018,12,09,23,21,7.60
2018,12,09,23,22,7.60
2018,12,09,23,23,7.60
2018,12,09,23,24,7.60
2018,12,09,23,25,7.60
2018,12,09,23,26,7.60
2018,12,09,23,27,7.60
2018,12,09,23,28,7.60
2018,12,09,23,29,7.60
2018,12,09,23,30,7.60
2018,12,09,23,31,7.60
2018,12,09,23,32,7.60
2018,12,09,23,33,7.60
2018,12,09,23,34,7.60
2018,12,09,23,35,7.60
2018,12,09,23,36,7.60
2018,12,09,23,37,7.60
2018,12,09,23,38,7.60
2018,12,09,23,39,7.60
2018,12,09,23,40,7.60
2018,12,09,23,41,7.60
2018,12,09,23,42,7.60
2018,12,09,23,43,7.60
2018,12,09,23,44,7.60
2018,12,09,23,45,7.60
2018,12,09,23,46,7.60
2018,12,09,23,47,7.60
2018,12,09,23,48,7.60
2018,12,09,23,49,7.60
2018,12,09,23,50,7.60
2018,12,09,23,51,7.50
2018,12,09,23,52,7.50
2018,12,09,23,53,7.50
2018,12,09,23,54,7.50
2018,12,09,23,55,7.50
2018,12,09,23,56,7.50
2018,12,09,23,57,7.50
2018,12,09,23,58,7.50
2018,12,09,23,59,7.50
